JFA13R LSGG-LFLJ

Flight info

Callsign JFA13R
Flight time 0h 26m
Altitude 19000
Route BALSI
Aircraft PC12/L-SDFGRWY/S

Departure

Time 2026-04-26 11:30
Airport Geneva International Airport (LSGG)

Arrival

Time 2026-04-26 11:56
Airport Courchevel Altiport (LFLJ)
Time Latitude Longitude Altitude Speed Heading
2026-04-26 11:24 46.23719 6.09881 1397 ft 0 kts 135°
2026-04-26 11:26 46.23718 6.09882 1397 ft 1 kts 135°
2026-04-26 11:26 46.23696 6.09913 1397 ft 11 kts 135°
2026-04-26 11:26 46.23677 6.09938 1396 ft 6 kts 136°
2026-04-26 11:27 46.23650 6.09976 1396 ft 0 kts 137°
2026-04-26 11:27 46.23620 6.09965 1397 ft 11 kts 228°
2026-04-26 11:27 46.23553 6.09865 1397 ft 11 kts 226°
2026-04-26 11:27 46.23497 6.09853 1404 ft 13 kts 133°
2026-04-26 11:28 46.23418 6.09966 1398 ft 17 kts 136°
2026-04-26 11:28 46.23363 6.10044 1398 ft 1 kts 134°
2026-04-26 11:28 46.23361 6.10048 1398 ft 0 kts 134°
2026-04-26 11:28 46.23339 6.10078 1397 ft 13 kts 135°
2026-04-26 11:29 46.23323 6.10189 1395 ft 10 kts 47°
2026-04-26 11:29 46.23442 6.10364 1386 ft 50 kts 45°
2026-04-26 11:29 46.23814 6.10904 1425 ft 95 kts 44°
2026-04-26 11:29 46.24348 6.11652 1727 ft 117 kts 44°
2026-04-26 11:30 46.24935 6.12546 2200 ft 130 kts 48°
2026-04-26 11:30 46.25344 6.13160 2688 ft 129 kts 46°
2026-04-26 11:30 46.26159 6.14337 3761 ft 120 kts 43°
2026-04-26 11:30 46.26763 6.15205 4345 ft 125 kts 41°
2026-04-26 11:31 46.27430 6.16141 4867 ft 143 kts 44°
2026-04-26 11:31 46.28145 6.17175 5500 ft 148 kts 45°
2026-04-26 11:31 46.28864 6.18169 6289 ft 138 kts 41°
2026-04-26 11:31 46.29428 6.19317 6835 ft 147 kts 77°
2026-04-26 11:32 46.29179 6.20745 7409 ft 158 kts 124°
2026-04-26 11:32 46.28248 6.21562 8133 ft 159 kts 167°
2026-04-26 11:32 46.27173 6.21396 8850 ft 162 kts 199°
2026-04-26 11:32 46.26165 6.20520 9372 ft 177 kts 219°
2026-04-26 11:33 46.25200 6.19282 9898 ft 188 kts 215°
2026-04-26 11:33 46.24130 6.18294 10761 ft 176 kts 210°
2026-04-26 11:33 46.23090 6.17417 11564 ft 170 kts 209°
2026-04-26 11:33 46.22050 6.16573 12243 ft 174 kts 208°
2026-04-26 11:34 46.20988 6.15701 12909 ft 176 kts 211°
2026-04-26 11:34 46.19941 6.14761 13601 ft 179 kts 214°
2026-04-26 11:34 46.18870 6.13780 14151 ft 188 kts 211°
2026-04-26 11:34 46.17766 6.12834 14904 ft 179 kts 211°
2026-04-26 11:35 46.16696 6.11944 15622 ft 177 kts 212°
2026-04-26 11:35 46.15640 6.11023 16285 ft 177 kts 213°
2026-04-26 11:35 46.14587 6.10101 16937 ft 178 kts 213°
2026-04-26 11:35 46.13881 6.09492 17379 ft 178 kts 213°
2026-04-26 11:36 46.12455 6.08261 18290 ft 179 kts 214°
2026-04-26 11:36 46.11384 6.07337 18885 ft 180 kts 214°
2026-04-26 11:36 46.10300 6.06401 19455 ft 183 kts 214°
2026-04-26 11:36 46.09218 6.05470 20037 ft 185 kts 213°
2026-04-26 11:37 46.08105 6.04511 20613 ft 186 kts 214°
2026-04-26 11:37 46.06971 6.03533 21075 ft 197 kts 213°
2026-04-26 11:37 46.05720 6.02451 21173 ft 224 kts 213°
2026-04-26 11:37 46.04312 6.01234 21175 ft 247 kts 213°
2026-04-26 11:38 46.02779 5.99946 21174 ft 263 kts 209°
2026-04-26 11:38 46.00993 5.99114 21165 ft 276 kts 192°
2026-04-26 11:38 45.99048 5.98913 21171 ft 284 kts 184°
2026-04-26 11:38 45.97058 5.98811 21167 ft 288 kts 184°
2026-04-26 11:39 45.95052 5.98691 21166 ft 289 kts 185°
2026-04-26 11:39 45.93038 5.98562 21168 ft 290 kts 184°
2026-04-26 11:39 45.91013 5.98436 21163 ft 291 kts 184°
2026-04-26 11:39 45.88989 5.98316 21165 ft 291 kts 184°
2026-04-26 11:40 45.86961 5.98194 21167 ft 291 kts 184°
2026-04-26 11:40 45.84936 5.98127 21168 ft 291 kts 182°
2026-04-26 11:40 45.82906 5.98063 21161 ft 292 kts 183°
2026-04-26 11:40 45.80877 5.97970 21161 ft 291 kts 184°
2026-04-26 11:41 45.78865 5.97852 21159 ft 288 kts 184°
2026-04-26 11:42 45.64896 5.97052 21160 ft 288 kts 184°
2026-04-26 11:43 45.62893 5.96938 21158 ft 288 kts 184°
2026-04-26 11:43 45.60918 5.96825 21158 ft 287 kts 184°
2026-04-26 11:43 45.58928 5.96713 21158 ft 286 kts 184°
2026-04-26 11:43 45.56934 5.96600 21160 ft 287 kts 184°
2026-04-26 11:44 45.54953 5.96779 21145 ft 289 kts 165°
2026-04-26 11:44 45.53230 5.98301 20844 ft 299 kts 134°
2026-04-26 11:44 45.52293 6.00909 20525 ft 298 kts 103°
2026-04-26 11:44 45.52105 6.03839 20235 ft 296 kts 91°
2026-04-26 11:45 45.52109 6.06785 19945 ft 297 kts 89°
2026-04-26 11:45 45.52098 6.09722 19660 ft 296 kts 91°
2026-04-26 11:45 45.52072 6.12663 19375 ft 297 kts 91°
2026-04-26 11:45 45.52045 6.15621 19136 ft 298 kts 91°
2026-04-26 11:46 45.52015 6.18573 18928 ft 298 kts 91°
2026-04-26 11:46 45.51983 6.21523 18718 ft 298 kts 91°
2026-04-26 11:46 45.51947 6.24501 18507 ft 300 kts 91°
2026-04-26 11:46 45.51910 6.27481 18279 ft 301 kts 91°
2026-04-26 11:47 45.51871 6.30458 18041 ft 299 kts 91°
2026-04-26 11:47 45.51833 6.33403 17800 ft 295 kts 91°
2026-04-26 11:47 45.51797 6.36276 17555 ft 283 kts 91°
2026-04-26 11:47 45.51762 6.39003 17307 ft 271 kts 91°
2026-04-26 11:48 45.51728 6.41657 17018 ft 268 kts 91°
2026-04-26 11:48 45.51691 6.44324 16631 ft 270 kts 91°
2026-04-26 11:48 45.51650 6.46996 16254 ft 269 kts 91°
2026-04-26 11:48 45.51611 6.49644 15883 ft 266 kts 91°
2026-04-26 11:49 45.51366 6.52242 15478 ft 267 kts 107°
2026-04-26 11:49 45.50672 6.54634 14934 ft 255 kts 115°
2026-04-26 11:49 45.49913 6.56818 14379 ft 237 kts 116°
2026-04-26 11:49 45.49176 6.58874 13741 ft 230 kts 117°
2026-04-26 11:50 45.48444 6.60881 13063 ft 227 kts 120°
2026-04-26 11:50 45.47397 6.62513 12622 ft 224 kts 147°
2026-04-26 11:50 45.45939 6.63237 12293 ft 222 kts 178°
2026-04-26 11:50 45.44492 6.62645 11965 ft 218 kts 214°
2026-04-26 11:51 45.43537 6.61005 11465 ft 214 kts 245°
2026-04-26 11:51 45.43332 6.58956 10820 ft 213 kts 276°
2026-04-26 11:51 45.43842 6.57034 10280 ft 204 kts 301°
2026-04-26 11:51 45.44844 6.55579 9675 ft 204 kts 324°
2026-04-26 11:52 45.46086 6.54824 9170 ft 190 kts 348°
2026-04-26 11:52 45.46949 6.54790 8999 ft 181 kts 11°
2026-04-26 11:52 45.48188 6.56017 8471 ft 164 kts 63°
2026-04-26 11:52 45.48245 6.57526 8060 ft 158 kts 113°
2026-04-26 11:53 45.47561 6.58679 7745 ft 151 kts 139°
2026-04-26 11:53 45.46812 6.59733 7473 ft 152 kts 128°
2026-04-26 11:53 45.46250 6.60921 7257 ft 131 kts 121°
2026-04-26 11:54 45.45190 6.63108 6799 ft 139 kts 127°
2026-04-26 11:54 45.44613 6.64162 6737 ft 134 kts 129°
2026-04-26 11:54 45.43992 6.65148 6646 ft 132 kts 137°
2026-04-26 11:54 45.43196 6.65635 6634 ft 123 kts 178°
2026-04-26 11:55 45.42355 6.65564 6617 ft 120 kts 185°
2026-04-26 11:55 45.41559 6.65359 6596 ft 115 kts 194°
2026-04-26 11:55 45.40831 6.64948 6449 ft 110 kts 209°
2026-04-26 11:55 45.40288 6.64263 6347 ft 100 kts 225°
2026-04-26 11:56 45.39835 6.63619 6442 ft 77 kts 223°
2026-04-26 11:56 45.39597 6.63301 6595 ft 9 kts 179°
2026-04-26 11:56 45.39597 6.63330 6596 ft 6 kts 22°
2026-04-26 11:56 45.39616 6.63330 6599 ft 3 kts 343°
2026-04-26 11:57 45.39639 6.63310 6595 ft 7 kts 324°
2026-04-26 11:57 45.39687 6.63298 6592 ft 2 kts 52°